Regional Weather Roundup
Issued by NWS Austin/San Antonio, TX

Home | Current Version | Previous Version | Text Only | Print | Product List | Glossary On
Versions: 1 2 3 4 5 6 7 8 9 10 11 12 13 14 15 16 17 18 19 20 21 22 23 24 25 26 27 28 29 30 31 32 33 34 35 36 37 38 39 40 41 42 43 44 45 46 47 48 49 50
349
ASUS44 KEWX 170010
RWREWX
SOUTH TEXAS REGIONAL WEATHER ROUNDUP
NATIONAL WEATHER SERVICE AUSTIN/SAN ANTONIO TX
600 PM CST TUE JAN 16 2018

NOTE: "FAIR" INDICATED FEW OR NO CLOUDS BELOW 12,000 FEET WITH NO
SIGNIFICANT WEATHER AND/OR OBSTRUCTIONS TO VISIBILITY.

* - THESE STATIONS ARE NOT NWS OR FAA STATIONS...AND ARE NOT SUBJECT
    TO NWS AND FAA QUALITY CONTROL.

TXZ171-172-183>190-170100-
TEXAS HILL COUNTRY AND EDWARDS PLATEAU

CITY           SKY/WX    TMP DP  RH WIND       PRES   REMARKS
JUNCTION       CLOUDY    26  -2  29 N9        30.64R WCI  17
6HR MIN TEMP:  25; 6HR MAX TEMP:  28;

*LLANO         CLOUDY    28   0  29 N9        30.72S WCI  20
BURNET         CLOUDY    24   0  35 N9        30.68R WCI  14
6HR MIN TEMP:  24; 6HR MAX TEMP:  27;

*HORSESHOE BAY CLOUDY    28   5  38 N8        30.68R WCI  19
6HR MIN TEMP:  26; 6HR MAX TEMP:  30;

*KERRVILLE     CLOUDY    26   3  36 N15       30.62S WCI  14
6HR MIN TEMP:  24; 6HR MAX TEMP:  27;

*FREDERICKSBRG CLOUDY    25  -4  28 N14       30.63R WCI  13
6HR MIN TEMP:  25; 6HR MAX TEMP:  28;

*ROCKSPRINGS     N/A     25  -2  30 N8        30.64R WCI  16
*BOERNE STAGE  CLOUDY    28   3  34 N12G17    30.63S WCI  18
*CASTROVILLE   CLOUDY    30  10  43 N6        30.67F WCI  24
HONDO          CLOUDY    32  16  51 N8        30.66S WCI  25
6HR MIN TEMP:  30; 6HR MAX TEMP:  33; 6HR PCP: TRACE;

*UVALDE        CLOUDY    33   6  32 N6        30.67S WCI  27
6HR MIN TEMP:  31; 6HR MAX TEMP:  33;

DEL RIO        CLOUDY    35  -1  21 N7        30.67S WCI  29
6HR MIN TEMP:  33; 6HR MAX TEMP:  35;

LAUGHLIN AFB   CLOUDY    34  -2  21 N10       30.66S WCI  26
6HR MIN TEMP:  34; 6HR MAX TEMP:  35;

CARRIZO SPRGS  CLOUDY    34  10  37 N7        30.67S WCI  28
*EAGLE PASS    CLOUDY    36   0  21 N7        30.67S WCI  30
*FAITH RANCH   CLOUDY    36  14  41 N8        30.67R WCI  29
$$

TXZ173-191>194-202-209-217>225-228-170100-
CENTRAL AND SOUTH CENTRAL TEXAS

CITY           SKY/WX    TMP DP  RH WIND       PRES   REMARKS
GEORGETOWN     NOT AVBL
AUSTIN/BERGSTM CLOUDY    27  13  55 N15       30.68R WCI  15
6HR MIN TEMP:  26; 6HR MAX TEMP:  28; 6HR PCP: TRACE;

AUSTIN/MABRY   CLOUDY    28   5  37 N9        30.69R WCI  19
6HR MIN TEMP:  27; 6HR MAX TEMP:  29; 6HR PCP: TRACE;

*AUSTIN/EXEC   CLOUDY    27   5  39 N18       30.69R WCI  13
*LAGO VISTA    CLOUDY    26   1  34 N10G20    30.65S WCI  15
6HR MIN TEMP:  26; 6HR MAX TEMP:  28;

SAN MARCOS     CLOUDY    28  14  55 N18       30.68R WCI  15
6HR MIN TEMP:  26; 6HR MAX TEMP:  29; 6HR PCP: TRACE;

NEW BRAUNFELS  CLOUDY    28  12  51 N15       30.66R WCI  16
6HR MIN TEMP:  26; 6HR MAX TEMP:  29; 6HR PCP: TRACE;

RANDOLPH AFB   CLOUDY    29   6  36 N12       30.65R WCI  20
6HR MIN TEMP:  27; 6HR MAX TEMP:  30; 6HR PCP: TRACE;

PT SAN ANTONIO CLOUDY    30   8  39 N13       30.64R WCI  20
6HR MIN TEMP:  28; 6HR MAX TEMP:  30; 6HR PCP: TRACE;

SAN ANTONIO    CLOUDY    29   8  41 N9        30.65S WCI  20
6HR MIN TEMP:  27; 6HR MAX TEMP:  30; 6HR PCP:  0.01;

STINSON FIELD  CLOUDY    32  10  40 N12       30.65R WCI  23
6HR MIN TEMP:  29; 6HR MAX TEMP:  32; 6HR PCP: TRACE;

*LA GRANGE     CLOUDY    28  15  59 N9G17     30.66S WCI  19
6HR MIN TEMP:  26; 6HR MAX TEMP:  28;

*GIDDINGS      CLOUDY    26  13  57 N13G21    30.67S WCI  15
6HR MIN TEMP:  24; 6HR MAX TEMP:  26; 6HR PCP:  0.02;

*GONZALES      CLOUDY    27  16  62 N9G20     30.68R WCI  18
6HR MIN TEMP:  26; 6HR MAX TEMP:  28;

$$

TXZ163>164-176>182-195>201-210>213-226-227-235-170100-
SOUTHEAST TEXAS

CITY           SKY/WX    TMP DP  RH WIND       PRES   REMARKS
COLLEGE STN    CLOUDY    26  13  57 N12       30.68S WCI  16
6HR MIN TEMP:  25; 6HR MAX TEMP:  26;

*BRYAN         CLOUDY    25  11  56 N15       30.70S WCI  12
6HR MIN TEMP:  24; 6HR MAX TEMP:  25;

*CALDWELL      CLOUDY    24  13  61 N18       30.70R WCI  11
6HR MIN TEMP:  24; 6HR MAX TEMP:  25;

*CROCKETT        N/A     23  10  58 CALM      30.72R
*BRENHAM       CLOUDY    27  18  68 N12       30.68S WCI  17
6HR MIN TEMP:  26; 6HR MAX TEMP:  28;

HUNTSVILLE     CLOUDY    24  15  68 N9        30.66R WCI  14
6HR MIN TEMP:  23; 6HR MAX TEMP:  24;

CONROE         CLOUDY    24  14  65 N15G21    30.66R WCI  11
6HR MIN TEMP:  24; 6HR MAX TEMP:  25; 6HR PCP:  0.01;

HOUSTON BUSH   CLOUDY    27  20  75 NW13      30.65R WCI  16
6HR MIN TEMP:  25; 6HR MAX TEMP:  27; 6HR PCP:  0.12;

HOUSTON HOBBY  LGTSLEET  26  21  81 N16       30.64R WCI  14
6HR MIN TEMP:  25; 6HR MAX TEMP:  29; 6HR PCP:  0.03;

*HOUSTON SW AP FLURRIES  26  22  86 MISG      30.66R
6HR MIN TEMP:  25; 6HR MAX TEMP:  28;

PEARLAND       MIX PCPN  26  23  88 N12       30.65R WCI  16
6HR MIN TEMP:  26; 6HR MAX TEMP:  29; 6HR PCP:  0.05;

HOUSTON HOOKS  CLOUDY    25  17  72 N13G20    30.66R WCI  14
6HR MIN TEMP:  25; 6HR MAX TEMP:  27; 6HR PCP:  0.04;

ELLINGTON FLD  CLOUDY    27  19  74 N3        30.67R
SUGAR LAND     CLOUDY    27  19  72 N15G21    30.65R WCI  15
6HR MIN TEMP:  26; 6HR MAX TEMP:  29;

*HOUSTON EXEC  CLOUDY    25  18  74 CALM      30.67R
*CLEVELAND MUN CLOUDY    26  19  73 N12       30.66R WCI  16
6HR MIN TEMP:  25; 6HR MAX TEMP:  27;

*WHARTON       MIX PCPN  25  20  80 CALM      30.66R
*COLUMBUS      CLOUDY    26  15  63 N13       30.68R WCI  15
6HR MIN TEMP:  25; 6HR MAX TEMP:  27;

*EAGLE LAKE    CLOUDY    27  20  76 MISG      30.66S
6HR MIN TEMP:  26; 6HR MAX TEMP:  27; 6HR PCP:  0.01;

$$

TXZ214>216-236>238-170100-
THE UPPER TEXAS COAST

CITY           SKY/WX    TMP DP  RH WIND       PRES   REMARKS
*ORANGE        CLOUDY    28  26  93 N6        30.62R WCI  21
6HR MIN TEMP:  28; 6HR MAX TEMP:  32; 6HR PCP:  0.03;

PORT ARTHUR    CLOUDY    27  22  81 N14G22    30.61R WCI  16
6HR MIN TEMP:  27; 6HR MAX TEMP:  32; 6HR PCP:  0.08;

GALVESTON      MIX PCPN  31  26  82 N23       30.61R WCI  18
6HR MIN TEMP:  30; 6HR MAX TEMP:  34; 6HR PCP:  0.03;

ANGLETON         N/A     28  23  81 N16       30.62R WCI  16
*BAY CITY      CLOUDY    27  24  89 N8        30.63R WCI  19
PALACIOS       MIX PCPN  27  24  89 N22G29    30.64R WCI  13
6HR MIN TEMP:  27; 6HR MAX TEMP:  30; 6HR PCP: TRACE;

$$

TXZ229>234-239>247-170100-
TEXAS COASTAL BEND AND RIO GRANDE PLAINS

CITY           SKY/WX    TMP DP  RH WIND       PRES   REMARKS
VICTORIA       CLOUDY    27  19  72 N16       30.67R WCI  15
6HR MIN TEMP:  27; 6HR MAX TEMP:  28; 6HR PCP:  0.01;

*BEEVILLE      CLOUDY    28  19  66 N12       30.66F WCI  18
ROCKPORT       CLOUDY    28  23  81 N21G26    30.66R WCI  15
6HR MIN TEMP:  28; 6HR MAX TEMP:  31; 6HR PCP: TRACE;

*PORT ARANSAS  NOT AVBL
*PORT LAVACA   MIX PCPN  28  24  86 N14       30.66R WCI  16
6HR MIN TEMP:  27; 6HR MAX TEMP:  30;

*INGLESIDE     CLOUDY    30  23  77 N16       30.66R WCI  18
CORPUS CHRISTI CLOUDY    29  22  75 N22       30.66S WCI  15
6HR MIN TEMP:  28; 6HR MAX TEMP:  31; 6HR PCP: TRACE;

CORPUS NAS     CLOUDY    31  24  75 N24G33    30.65R WCI  17
6HR MIN TEMP:  31; 6HR MAX TEMP:  35; 6HR PCP: TRACE;

*ROBSTOWN      NOT AVBL
ALICE          CLOUDY    29  22  75 N13       30.67R WCI  19
6HR MIN TEMP:  28; 6HR MAX TEMP:  30; 6HR PCP: TRACE;

KINGSVILLE NAS CLOUDY    30  23  75 N18G25    30.66F WCI  18
6HR MIN TEMP:  29; 6HR MAX TEMP:  32;

COTULLA        CLOUDY    33  12  41 N9        30.68S WCI  25
6HR MIN TEMP:  31; 6HR MAX TEMP:  34;

LAREDO         CLOUDY    32  25  75 N6        30.69R WCI  26
6HR MIN TEMP:  31; 6HR MAX TEMP:  33; 6HR PCP: TRACE;

$$

TXZ248>255-170100-
DEEP SOUTH TEXAS

CITY           SKY/WX    TMP DP  RH WIND       PRES   REMARKS
BROWNSVILLE    NOT AVBL
PORT ISABEL    NOT AVBL
*SOUTH PADRE   NOT AVBL
HARLINGEN      MIX PCPN  30  28  93 N22       30.62R FOG     WCI  17
*HEBBRONVILLE  CLOUDY    28  24  86 N6        30.66R WCI  21
6HR MIN TEMP:  27; 6HR MAX TEMP:  84;

MCALLEN        LGT RAIN  34  28  80 N20       30.66R FOG     WCI  22
*WESLACO       MIX PCPN  31  28  90 N17G25    30.64R WCI  19
6HR MIN T



USA.gov is the U.S. government's official web portal to all federal, state and local government web resources and services.